Location: Unspecified
(19.2670°N, 0.0000°E)
Time: 10:43:32
(UTC+00:00)

ISS - Visible Passes

Search period start: 25 April 2019 00:00
Search period end: 05 May 2019 00:00
Orbit: 408 x 410 km, 51.6° (Epoch: 25 April)

Date Brightness Start Highest point End Pass type
(mag) Time Alt. Az. Time Alt. Az. Time Alt. Az.
25 Apr -3.3 04:16:28 40° S 04:17:17 54° SE 04:20:31 10° NE visible
26 Apr -0.8 03:28:11 15° E 03:28:11 15° E 03:29:10 10° ENE visible
26 Apr -1.7 05:00:59 10° W 05:03:02 15° NW 05:05:06 10° N visible
27 Apr -2.7 04:12:33 32° NNW 04:12:33 32° NNW 04:15:10 10° NNE visible
28 Apr -0.7 03:24:02 14° NE 03:24:02 14° NE 03:24:37 10° NE visible
